Walnut Ridge, AR

7:45 AM CDT on October 20, 2017 (GMT -0500)
Walnut Ridge Regional

Weather History for KARG - April, 2014

Change the Weather History Date:

Thursday, April 17, 2014

  Actual Average Record
Temperature  
Mean Temperature 52 °F -  
Max Temperature 66 °F 68 °F 89 °F (2006)
Min Temperature 39 °F 49 °F 37 °F (1997)
Degree Days  
Heating Degree Days 12    
Growing Degree Days 2 (Base 50)    
Moisture  
Dew Point 40 °F    
Average Humidity 61    
Maximum Humidity 87    
Minimum Humidity 17    
Precipitation  
Precipitation 0.00 in - - ()
Sea Level Pressure  
Sea Level Pressure 30.23 in    
Wind  
Wind Speed 4 mph (SE)    
Max Wind Speed 13 mph    
Max Gust Speed -    
Visibility 10 miles    
Events      
Averages and records for this station are not official NWS values.
T = Trace of Precipitation, MM = Missing Value Source: NWS Daily Summary

Daily Weather History Graph

Daily Weather History Graph

Search for Another Location

Airport or City:

Trip Planner

Search our weather history database for the weather conditions in past years. The results will help you decide how hot, cold, wet, or windy it might be!

Date:

Astronomy

Apr. 17, 2014 Rise Set
Actual Time 6:27 AM CDT 7:39 PM CDT
Civil Twilight 6:01 AM CDT 8:05 PM CDT
Nautical Twilight 5:29 AM CDT 8:37 PM CDT
Astronomical Twilight 4:56 AM CDT 9:10 PM CDT
Moon 10:21 PM CDT (4/17) 8:02 AM CDT (4/17)
Length of Visible Light 14h 04m
Length of Day
13h 11m
Waning Gibbous, 93% of the Moon is Illuminated
Apr 17
Waning Gibbous
Apr 22
Last Quarter
Apr 29
New
May 6
First Quarter
May 14
Full

Hourly Weather History & Observations

Time (CDT) Temp. Windchill Dew Point Humidity Pressure Visibility Wind Dir Wind Speed Gust Speed Precip Events Conditions
12:15 AM 44.6 °F 40.7 °F 35.6 °F 71% 30.16 in 10.0 mi South 6.9 mph - N/A   Clear
12:35 AM 44.6 °F 42.2 °F 35.6 °F 71% 30.17 in 10.0 mi South 4.6 mph - N/A   Clear
12:55 AM 44.6 °F - 35.6 °F 71% 30.18 in 10.0 mi Calm Calm - N/A   Clear
1:15 AM 44.6 °F - 33.8 °F 66% 30.18 in 10.0 mi Calm Calm - N/A   Clear
1:35 AM 42.8 °F 41.1 °F 35.6 °F 76% 30.19 in 10.0 mi NNW 3.5 mph - N/A   Clear
1:55 AM 42.8 °F 40.1 °F 35.6 °F 76% 30.19 in 10.0 mi North 4.6 mph - N/A   Clear
2:15 AM 42.8 °F 41.1 °F 35.6 °F 76% 30.19 in 10.0 mi North 3.5 mph - N/A   Clear
2:35 AM 42.8 °F - 35.6 °F 76% 30.19 in 10.0 mi Calm Calm - N/A   Clear
2:55 AM 42.8 °F 39.3 °F 35.6 °F 76% 30.18 in 10.0 mi East 5.8 mph - N/A   Clear
3:15 AM 41.0 °F 38.0 °F 35.6 °F 81% 30.18 in 10.0 mi East 4.6 mph - N/A   Clear
3:35 AM 42.8 °F 40.1 °F 35.6 °F 76% 30.18 in 10.0 mi ESE 4.6 mph - N/A   Clear
3:55 AM 42.8 °F 41.1 °F 35.6 °F 76% 30.19 in 10.0 mi ESE 3.5 mph - N/A   Clear
4:15 AM 42.8 °F - 35.6 °F 76% 30.20 in 10.0 mi Calm Calm - N/A   Clear
4:35 AM 41.0 °F 39.0 °F 35.6 °F 81% 30.20 in 10.0 mi ESE 3.5 mph - N/A   Clear
4:55 AM 41.0 °F - 35.6 °F 81% 30.20 in 10.0 mi Calm Calm - N/A   Clear
5:15 AM 41.0 °F - 35.6 °F 81% 30.20 in 10.0 mi Calm Calm - N/A   Clear
5:35 AM 39.2 °F - 33.8 °F 81% 30.21 in 10.0 mi Calm Calm - N/A   Clear
5:55 AM 41.0 °F - 33.8 °F 76% 30.22 in 10.0 mi Calm Calm - N/A   Clear
6:15 AM 41.0 °F - 33.8 °F 76% 30.22 in 10.0 mi Calm Calm - N/A   Clear
6:35 AM 39.2 °F 37.0 °F 33.8 °F 81% 30.23 in 10.0 mi ENE 3.5 mph - N/A   Clear
6:55 AM 39.2 °F - 35.6 °F 87% 30.24 in 10.0 mi Calm Calm - N/A   Clear
7:15 AM 39.2 °F 37.0 °F 33.8 °F 81% 30.25 in 10.0 mi North 3.5 mph - N/A   Clear
7:35 AM 42.8 °F 41.1 °F 37.4 °F 81% 30.26 in 10.0 mi North 3.5 mph - N/A   Clear
7:55 AM 44.6 °F - 39.2 °F 81% 30.27 in 10.0 mi Calm Calm - N/A   Clear
8:15 AM 48.2 °F - 39.2 °F 71% 30.28 in 10.0 mi Calm Calm - N/A   Clear
8:35 AM 51.8 °F - 39.2 °F 62% 30.28 in - Calm Calm - N/A   Clear
8:55 AM 51.8 °F - 39.2 °F 62% 30.28 in 10.0 mi Calm Calm - N/A   Clear
9:15 AM 55.4 °F - 10.4 °F 17% 30.28 in 10.0 mi Calm Calm - N/A   Clear
9:35 AM 53.6 °F - 39.2 °F 58% 30.29 in 10.0 mi Calm Calm - N/A   Clear
9:55 AM - - - N/A% - - North - - N/A   Unknown
10:15 AM 57.2 °F - 42.8 °F 59% 30.30 in 10.0 mi ESE 3.5 mph - N/A   Unknown
10:35 AM 57.2 °F - 42.8 °F 59% 30.30 in 10.0 mi South 4.6 mph - N/A   Unknown
11:15 AM 60.8 °F - 42.8 °F 52% 30.30 in 10.0 mi ESE 3.5 mph - N/A   Clear
11:35 AM 60.8 °F - 41.0 °F 48% 30.29 in 10.0 mi ESE 4.6 mph - N/A   Clear
11:55 AM 60.8 °F - 41.0 °F 48% 30.28 in 10.0 mi SE 5.8 mph - N/A   Clear
12:15 PM 62.6 °F - 41.0 °F 45% 30.28 in 10.0 mi South 4.6 mph - N/A   Clear
12:35 PM 62.6 °F - 39.2 °F 42% 30.27 in 10.0 mi SSW 4.6 mph - N/A   Clear
12:55 PM 62.6 °F - 41.0 °F 45% 30.26 in 10.0 mi SSE 8.1 mph - N/A   Clear
1:15 PM 64.4 °F - 42.8 °F 45% 30.26 in 10.0 mi SSE 5.8 mph - N/A   Clear
1:35 PM 64.4 °F - 41.0 °F 42% 30.25 in 10.0 mi SSW 4.6 mph - N/A   Clear
1:55 PM 64.4 °F - 39.2 °F 40% 30.24 in 10.0 mi South 6.9 mph - N/A   Clear
2:15 PM 64.4 °F - 42.8 °F 45% 30.24 in 10.0 mi South 8.1 mph - N/A   Clear
2:35 PM 66.2 °F - 42.8 °F 43% 30.24 in 10.0 mi SSE 8.1 mph - N/A   Clear
2:55 PM 66.2 °F - 42.8 °F 43% 30.23 in 10.0 mi SSW 10.4 mph - N/A   Clear
3:15 PM 66.2 °F - 42.8 °F 43% 30.23 in 10.0 mi South 9.2 mph - N/A   Clear
3:35 PM 66.2 °F - 39.2 °F 37% 30.23 in 10.0 mi South 12.7 mph - N/A   Clear
3:55 PM 66.2 °F - 42.8 °F 43% 30.23 in 10.0 mi South 9.2 mph - N/A   Clear
4:15 PM 66.2 °F - 42.8 °F 43% 30.22 in 10.0 mi SSW 9.2 mph - N/A   Clear
4:35 PM 66.2 °F - 42.8 °F 43% 30.22 in 10.0 mi SSE 4.6 mph - N/A   Clear
4:55 PM 66.2 °F - 42.8 °F 43% 30.21 in 10.0 mi South 6.9 mph - N/A   Clear
5:15 PM 66.2 °F - 44.6 °F 46% 30.22 in 10.0 mi SW 3.5 mph - N/A   Clear
5:35 PM 66.2 °F - 44.6 °F 46% 30.22 in 10.0 mi SSE 6.9 mph - N/A   Clear
5:55 PM 64.4 °F - 42.8 °F 45% 30.22 in 10.0 mi South 5.8 mph - N/A   Clear
6:15 PM 64.4 °F - 44.6 °F 49% 30.21 in 10.0 mi South 4.6 mph - N/A   Partly Cloudy
6:35 PM 64.4 °F - 44.6 °F 49% 30.21 in 10.0 mi SSW 3.5 mph - N/A   Partly Cloudy
6:55 PM 64.4 °F - 44.6 °F 49% 30.22 in 10.0 mi South 3.5 mph - N/A   Scattered Clouds
7:15 PM 64.4 °F - 41.0 °F 42% 30.21 in 10.0 mi Calm Calm - N/A   Partly Cloudy
7:35 PM 64.4 °F - 41.0 °F 42% 30.22 in 10.0 mi Calm Calm - N/A   Partly Cloudy
7:55 PM 64.4 °F - 42.8 °F 45% 30.22 in 10.0 mi Calm Calm - N/A   Scattered Clouds
8:15 PM 62.6 °F - 42.8 °F 48% 30.22 in 10.0 mi Calm Calm - N/A   Overcast
8:35 PM 60.8 °F - 46.4 °F 59% 30.23 in 10.0 mi East 4.6 mph - N/A   Scattered Clouds
8:55 PM 60.8 °F - 46.4 °F 59% 30.24 in 10.0 mi Calm Calm - N/A   Clear
9:15 PM 60.8 °F - 48.2 °F 63% 30.23 in 10.0 mi ESE 6.9 mph - N/A   Clear
9:35 PM 59.0 °F - 48.2 °F 67% 30.23 in 10.0 mi ESE 5.8 mph - N/A   Clear
9:55 PM 57.2 °F - 48.2 °F 72% 30.23 in 10.0 mi East 4.6 mph - N/A   Clear
10:15 PM 57.2 °F - 48.2 °F 72% 30.23 in 10.0 mi East 4.6 mph - N/A   Clear
10:35 PM 57.2 °F - 48.2 °F 72% 30.23 in 10.0 mi East 3.5 mph - N/A   Clear
10:55 PM 55.4 °F - 48.2 °F 77% 30.22 in 10.0 mi Calm Calm - N/A   Clear
11:15 PM 55.4 °F - 48.2 °F 77% 30.23 in 10.0 mi Calm Calm - N/A   Clear
11:35 PM 57.2 °F - 48.2 °F 72% 30.23 in 10.0 mi Calm Calm - N/A   Clear
11:55 PM 55.4 °F - 48.2 °F 77% 30.22 in 10.0 mi ENE 3.5 mph - N/A   Scattered Clouds